Location: Brze?nica Stara
(51.0690°N, 19.1701°E)
Time: 10:22:33
(UTC+00:00)

Daily predictions for brighter satellites

Satellite Brightness Start Highest point End
(mag) Time Altitude Azimuth Time Altitude Azimuth Time Altitude Azimuth
BREEZE-M DEB (TANK) 4.5 18:49:58 10° WSW 18:54:57 86° SSE 19:17:47 10° ENE
Cosmos 909 Rocket 4.3 18:55:26 10° S 19:01:24 45° ESE 19:07:30 10° NE
SL-08 R/B 3.6 19:00:59 10° NNE 19:05:43 51° E 19:10:19 10° S
Cosmos 1437 Rocket 4.2 19:03:42 10° SE 19:06:10 18° E 19:08:39 10° NE
Cosmos 1452 Rocket 3.8 19:02:10 10° SSW 19:07:24 78° WNW 19:12:40 10° NNE
Cosmos 1626 Rocket 4.1 19:05:07 10° N 19:09:19 44° ENE 19:13:31 10° SSE
Cosmos 1607 3.9 19:06:53 10° SSW 19:13:02 80° SE 19:19:20 10° NE
Cosmos 2322 Rocket 3.1 19:08:01 10° NNW 19:13:16 37° NE 19:18:30 10° ESE
Terra 2.2 19:09:13 10° S 19:13:52 64° WSW 19:18:34 10° NNW
Cosmos 2237 4.4 19:08:48 10° NNW 19:14:34 80° WSW 19:20:18 10° SSE
Cosmos 2061 Rocket 4.2 19:08:41 10° S 19:14:45 57° E 19:20:55 10° NNE
Cosmos 1743 3.3 19:12:01 10° NNW 19:14:54 42° W 19:17:46 10° SSW
IRS-1A Rocket 4.5 19:09:57 10° SSE 19:15:48 86° WSW 19:21:46 10° NNW
Cosmos 1302 Rocket 4.0 19:11:09 10° SSW 19:16:19 82° ESE 19:21:32 10° NNE
Cosmos 2151 3.6 19:14:21 10° N 19:18:13 38° ENE 19:22:03 10° SE
Cosmos 2082 Rocket 2.2 19:12:52 10° SSW 19:18:35 77° ESE 19:24:18 10° NNE
Cosmos 2369 4.1 19:14:57 10° NW 19:20:38 66° WSW 19:26:18 10° SSE
ADEOS 3.9 19:16:24 10° S 19:21:34 67° WSW 19:26:48 10° NNW
Helios 1A Rocket 2.9 19:20:29 10° N 19:23:36 58° WNW 19:26:41 10° SSW
Cosmos 1802 Rocket 4.3 19:18:52 10° SSW 19:25:01 72° WNW 19:31:11 10° N
MOS 1-B 4.4 19:26:20 10° SSE 19:32:09 88° W 19:38:00 10° NNW
NOSS 3-3 (C) 3.7 19:27:13 10° SSW 19:32:23 62° SE 19:38:35 10° NE
Cosmos 1455 Rocket 4.1 19:32:44 10° SSW 19:37:00 48° WNW 19:41:16 10° N
CZ-4B R/B 2.9 19:35:01 13° SE 19:37:49 47° ENE 19:41:11 10° N
USA 306 2.3 19:35:15 10° W 19:38:20 53° NNW 19:40:23 10° ENE
Okean O Rocket 1.8 19:34:37 10° S 19:38:54 72° WSW 19:43:13 10° NNW
Cosmos 2278 3.9 19:33:44 10° NNW 19:39:27 68° ENE 19:44:30 13° SE
Cosmos 2228 3.4 19:39:05 10° SSW 19:43:09 61° WNW 19:47:14 10° N
USA 186 1.8 19:40:57 10° S 19:43:34 59° W 19:46:20 10° NNW
SL-16 R/B 2.2 19:38:19 10° NNW 19:44:02 88° ENE 19:49:05 13° SSE
NOSS 3-4 (A) 3.9 19:37:38 10° NW 19:44:10 74° NE 19:51:14 13° SE
NOSS 3-4 (C) 3.9 19:38:16 10° NW 19:44:50 74° NE 19:51:53 13° SE
Cosmos 1805 3.7 19:44:22 10° N 19:47:24 34° ENE 19:49:24 17° SE
Okean 1-7 Rocket 4.4 19:45:52 10° N 19:50:04 38° ENE 19:53:16 16° SE
Cosmos 1544 Rocket 3.5 19:46:10 10° S 19:50:28 70° E 19:54:48 10° NNE
Cosmos 2233 Rocket 4.3 19:45:44 10° SSW 19:51:53 71° WNW 19:58:04 10° N
ATLAS 2AS CENTAUR R/B 4.5 19:48:14 10° W 19:54:24 33° NNW 20:00:29 10° NE
NOSS 3 (A) 4.1 19:52:14 10° NW 19:54:26 66° NE 19:55:59 21° SE
CZ-2C R/B 2.7 19:55:38 21° SE 19:57:05 37° ENE 19:59:42 10° N
Cosmos 1980 Rocket 4.4 19:54:54 10° NW 19:58:53 20° W 20:02:52 10° SW
COSMOS 2406 3.2 19:53:46 10° SSW 19:59:30 78° ESE 20:05:16 10° NNE
Okean-O 3.4 19:55:35 10° S 19:59:48 47° W 20:04:02 10° NNW
CZ-4 R/B 4.2 19:59:49 10° W 20:00:41 11° W 20:01:33 10° WNW
Ariane Rocket 3.0 19:58:02 15° SSE 20:02:13 76° ENE 20:07:18 10° NNW
Meteor 1-20 Rocket 4.4 19:59:05 10° NNW 20:04:40 76° W 20:09:56 12° S
SPOT 3 Rocket 3.6 20:01:10 13° SSE 20:05:43 82° WSW 20:10:53 10° NNW
Cosmos 1933 3.1 20:02:11 11° S 20:05:44 77° E 20:09:34 10° NNE
Cosmos 1758 Rocket 4.1 20:02:08 10° NNW 20:06:27 58° W 20:10:37 11° S
Nadezhda 4 Rocket 4.2 20:00:56 10° N 20:06:59 59° ENE 20:11:39 17° SSE
EP 1 4.3 20:06:07 10° NW 20:08:42 67° SW 20:09:55 28° SSE
DNEPR-1 R/B 4.4 20:05:16 10° NW 20:10:41 79° SW 20:15:40 18° SSE
Cosmos 2333 Rocket 2.4 20:06:10 10° NW 20:11:50 68° WSW 20:16:16 17° SSE
Cosmos 1763 Rocket 4.3 20:13:22 19° SSE 20:16:24 33° ESE 20:21:05 10° NE
Cosmos 1825 Rocket 3.7 20:15:23 10° N 20:19:42 60° ENE 20:22:19 23° SSE
Helios 1B rocket 4.0 20:21:14 14° E 20:22:55 19° ENE 20:25:25 10° NNE
Cosmos 1536 4.4 20:20:16 10° NNE 20:23:07 21° ENE 20:24:41 16° ESE
Cosmos 990 Rocket 4.3 20:18:29 10° NNW 20:23:36 57° ENE 20:26:57 21° SE
Okean 1 3.6 20:22:19 26° SE 20:23:47 40° E 20:27:10 10° NNE
Cosmos 44 4.1 20:19:14 10° NW 20:24:32 51° NE 20:28:39 16° ESE
Cosmos 1953 Rocket 4.2 20:21:32 10° N 20:25:41 42° ENE 20:27:55 23° SE
Cosmos 2360 Rocket 2.2 20:20:05 10° NNW 20:25:48 86° WSW 20:29:39 21° SSE
Cosmos 1461 2.7 20:24:01 10° SW 20:27:42 76° NW 20:31:24 10° NE
Cosmos 1707 3.9 20:28:22 16° E 20:28:22 16° E 20:30:08 10° NE
CZ-4B R/B 3.7 20:25:36 17° S 20:29:13 62° WSW 20:34:03 10° NNW
Cosmos 2026 Rocket 4.4 20:23:21 10° N 20:29:36 52° ENE 20:33:45 21° SE
Cosmos 1602 Rocket 4.0 20:26:25 10° NNW 20:30:40 57° W 20:33:50 17° S
CZ-4C R/B 4.1 20:28:00 10° W 20:32:21 31° NNW 20:37:49 10° NE
Cosmos 2333 4.2 20:27:36 10° NNW 20:33:22 89° WSW 20:37:06 23° SSE
GRACE-FO 1 4.4 20:36:05 31° SSE 20:37:34 67° E 20:41:03 10° N
Cosmos 1777 Rocket 4.2 20:32:40 10° NNW 20:37:53 68° WSW 20:41:10 23° S
GRACE-FO 2 4.4 20:36:33 31° SSE 20:38:02 68° E 20:41:31 10° N
Cosmos 2058 Rocket 4.1 20:37:19 23° ESE 20:38:47 29° E 20:42:31 10° NNE
ISS -3.8 20:35:42 10° W 20:39:04 81° N 20:41:23 19° E
Cosmos 2219 Rocket 2.2 20:33:34 10° NNW 20:39:16 80° ENE 20:42:48 24° SE
Cosmos 1437 Rocket 3.9 20:37:13 10° SW 20:40:34 38° WNW 20:43:58 10° N
Cosmos 220 Rocket 4.1 20:36:32 10° SSW 20:40:34 71° WNW 20:44:41 10° NNE
USA 290 2.1 20:39:45 36° S 20:40:46 59° ESE 20:43:52 10° NNE
Helios 1A 3.6 20:42:11 10° NNE 20:45:48 34° E 20:46:48 29° SE
Cosmos 1503 Rocket 4.0 20:41:13 10° NNW 20:46:25 74° WSW 20:49:23 26° S
Cosmos 2098 Rocket 3.3 20:44:22 15° SSW 20:48:19 68° W 20:52:26 10° N
DEBRIS 4.0 20:44:55 10° W 20:48:43 79° S 21:02:32 10° E
Cosmos 1076 Rocket 3.4 20:45:09 10° N 20:49:25 88° ENE 20:51:27 30° S
RESURS DK-1 3.6 20:51:34 10° NNW 20:55:10 32° NE 20:57:22 19° E
ARIANE 5 R/B 4.0 20:54:55 19° ESE 20:57:08 28° ENE 21:00:58 10° N
Cosmos 2322 Rocket 2.7 20:52:01 10° NW 20:57:28 50° WSW 21:00:46 23° S
ALOS 2 4.2 20:56:35 17° ESE 20:58:49 25° ENE 21:02:24 10° N
Cosmos 1464 Rocket 4.1 20:53:51 14° SSW 20:59:13 74° WNW 21:05:27 10° N
Cosmos 1354 Rocket 4.0 20:55:28 10° NNW 21:00:44 80° WSW 21:03:26 29° SSE
Cosmos 2082 Rocket 4.4 20:58:27 10° W 21:03:16 27° NW 21:08:06 10° NNE
USA 306 3.5 21:03:27 10° WNW 21:04:50 22° NW 21:04:50 22° NW
Cosmos 372 Rocket 4.3 21:00:22 10° NNW 21:05:26 57° ENE 21:08:03 27° SE
Cosmos 1606 Rocket 4.0 21:03:17 19° SSW 21:06:16 59° WNW 21:10:32 10° N
Cosmos 1766 2.6 21:09:15 10° N 21:12:30 87° E 21:13:02 59° SSE
Cosmos 1271 Rocket 3.7 21:12:52 26° E 21:12:52 26° E 21:15:45 10° NE
Cosmos 1726 Rocket 3.6 21:12:34 26° SSW 21:14:43 64° WNW 21:18:45 10° N
Cosmos 1842 3.8 21:15:02 31° E 21:15:02 31° E 21:17:46 10° NNE
Cosmos 2237 Rocket 3.6 21:10:44 10° NNW 21:15:47 31° NE 21:20:31 11° ESE
Cosmos 540 Rocket 3.4 21:13:16 22° SSW 21:16:37 86° ESE 21:21:48 10° NNE
Cosmos 1092 Rocket 3.9 21:10:51 10° N 21:17:03 90° ENE 21:20:29 29° S
Aureole 1 Rocket 3.9 21:13:17 10° NNW 21:18:59 88° WSW 21:22:39 29° SSE
Meteor 1-26 Rocket 4.1 21:17:24 27° S 21:20:33 84° E 21:26:18 10° NNE
CZ-2C R/B 4.5 21:17:31 11° ESE 21:21:10 21° ENE 21:25:00 10° N
Meteor 2-2 Rocket 4.2 21:23:03 29° S 21:26:06 80° E 21:31:54 10° NNE
Cosmos 1937 Rocket 4.0 21:21:46 10° NNW 21:26:47 49° ENE 21:29:23 26° ESE
COSMOS 2428 2.9 21:21:27 10° NNW 21:27:09 66° ENE 21:30:13 28° SE
SL-16 R/B 4.2 21:23:39 10° WNW 21:27:22 18° W 21:30:55 10° SW
NOSS 0 Rocket 4.3 21:21:28 10° NNW 21:27:34 58° NE 21:31:29 22° SE
Geosat 3.9 21:27:03 10° NNE 21:32:05 85° ESE 21:35:08 24° SSW
Cosmos 468 Rocket 4.0 21:30:31 32° S 21:32:57 69° ESE 21:38:12 10° NNE
Cosmos-2242 3.1 21:34:03 35° SSW 21:35:42 68° WNW 21:39:48 10° N
Cosmos 2034 Rocket 4.5 21:32:54 18° SSW 21:37:43 60° WNW 21:43:59 10° N
USA 234 3.9 21:39:50 10° ENE 21:45:41 34° SE 21:47:10 30° SSE
Cosmos 1812 Rocket 4.2 21:48:19 36° SE 21:49:16 41° E 21:53:26 10° NNE
TSX-5 3.5 21:47:03 10° NW 21:50:06 56° WSW 21:50:06 56° WSW
ACS3 Solar Sail 3.8 21:48:15 10° NE 21:50:52 13° E 21:53:29 10° ESE
CZ-2C R/B 4.3 21:47:40 10° NNE 21:52:48 32° E 21:54:49 26° SE
SeaSat 1 4.2 21:49:34 10° E 21:53:37 27° NE 21:57:41 10° NNW
Cosmos 2333 Rocket 4.5 21:52:49 10° WNW 21:55:03 12° W 21:57:17 10° WSW
Helios 1B rocket 2.7 21:55:11 39° WSW 21:55:38 41° W 21:58:59 10° NNW
Cosmos 2279 Rocket 3.9 21:53:17 32° S 21:56:23 84° E 22:02:41 10° N
Meteor 1-14 Rocket 4.1 21:51:28 10° NNW 21:57:03 86° W 21:59:19 37° S
Cosmos 1763 Rocket 4.5 21:53:12 11° SW 21:57:58 45° WNW 22:03:03 10° NNE
Cosmos 1470 2.3 21:54:46 10° NNW 21:58:04 69° W 21:58:12 68° WSW
Cosmos 1536 3.6 21:55:04 10° NNW 21:58:28 36° W 21:59:12 32° WSW
Cosmos 2221 2.4 21:59:07 51° SSE 21:59:59 68° E 22:04:10 10° NNE
Cosmos 1898 Rocket 3.5 21:55:01 10° NNW 22:00:13 74° WSW 22:02:03 40° S
Cosmos 1707 3.7 21:59:51 23° W 22:00:17 24° WNW 22:02:41 10° NNW
Cosmos 1634 Rocket 4.2 21:57:45 26° SSW 22:01:20 67° WNW 22:07:32 10° N
CZ-2C R/B 3.6 21:58:18 10° NNE 22:02:48 88° ESE 22:04:14 44° SSW
Cosmos 2297 Rocket 3.0 22:01:44 30° SE 22:03:06 34° ESE 22:08:09 10° NE
Cosmos 44 4.2 22:00:37 10° NW 22:05:36 39° WSW 22:06:56 33° SSW
Cosmos 2360 Rocket 4.2 22:05:31 10° WNW 22:08:56 17° W 22:11:23 13° SW
Meteor 2-6 Rocket 4.5 22:08:15 29° SSW 22:11:23 72° WNW 22:17:21 10° N
Cosmos 2322 3.9 22:06:09 10° NW 22:11:45 59° WSW 22:13:46 37° S
ISS -2.3 22:12:33 10° W 22:14:19 27° W 22:14:19 27° W
Cosmos 2058 Rocket 4.3 22:14:25 22° WSW 22:16:32 34° WNW 22:20:31 10° N
GP-B 3.2 22:13:28 10° N 22:17:49 62° E 22:18:52 46° SE
SAR-Lupe-2 3.2 22:20:00 75° WSW 22:20:04 75° WSW 22:23:24 10° NNW
Cosmos 2219 Rocket 3.8 22:18:30 10° NW 22:22:33 20° W 22:24:29 17° SW
Cosmos 2266 Rocket 3.9 22:18:08 10° N 22:24:12 88° W 22:26:50 36° S
Cosmos 1975 3.1 22:21:31 10° NNW 22:25:03 46° W 22:25:24 44° WSW
Cosmos 841 Rocket 3.5 22:28:15 36° SSW 22:30:26 82° WNW 22:35:44 10° NNE
RESURS DK-1 3.1 22:28:54 10° NW 22:32:32 34° WSW 22:32:35 34° WSW
ARIANE 5 R/B 3.4 22:32:16 35° SW 22:33:17 40° W 22:37:32 10° NNW
Meteor 1-19 Rocket 4.4 22:32:11 34° SSW 22:34:49 76° WNW 22:40:48 10° N
ALOS 2 3.1 22:33:58 39° SW 22:34:55 46° W 22:39:11 10° NNW
Cosmos 1271 Rocket 4.2 22:46:13 21° W 22:47:04 23° WNW 22:49:52 10° NNW
SL-16 R/B 3.3 22:42:49 10° NNW 22:48:13 41° NE 22:53:35 10° ESE
Lacrosse 4 Rocket 1.8 22:51:57 42° ESE 22:52:06 42° ESE 22:55:58 10° NE
Cosmos 1655 Rocket 4.0 22:46:10 10° N 22:52:26 79° ENE 22:55:28 33° SSE
Cosmos 1766 Rocket 3.4 22:50:01 10° N 22:54:20 87° W 22:55:19 53° S
PSLV R/B 4.1 22:50:22 10° N 22:54:32 51° WNW 22:55:59 35° SW
Cosmos 2237 Rocket 2.2 22:54:37 10° NW 23:00:15 63° WSW 23:02:17 38° S
CZ-2C R/B 2.5 22:58:57 40° S 23:00:53 76° WSW 23:06:07 10° NNW
BREEZE-M DEB (TANK) 3.6 22:52:16 10° WSW 23:03:24 88° N 23:06:36 10° ENE
Cosmos 1980 3.9 22:58:50 10° NW 23:04:21 55° WSW 23:06:13 38° SSW
Iridium 4 Rocket 3.9 23:04:44 34° SSE 23:07:14 66° E 23:13:01 10° N
COSMOS 2428 3.9 23:06:21 10° NW 23:10:54 25° WSW 23:12:11 23° WSW
Meteor 2-11 Rocket 4.5 23:05:04 10° N 23:11:15 78° ENE 23:14:22 31° SSE
Cosmos 2227 Rocket 2.6 23:11:04 34° SSE 23:13:05 49° ESE 23:18:32 10° NE
Meteor 2-4 Rocket 3.6 23:11:49 39° SSW 23:13:58 87° WNW 23:19:33 10° NNE
BREEZE-M DEB (TANK) 4.3 23:23:10 21° ESE 23:23:10 21° ESE 23:25:01 10° ESE
Cosmos 2263 Rocket 3.0 23:20:54 28° SSE 23:22:58 38° ESE 23:28:05 10° NE
Cosmos 1151 Rocket 4.0 23:25:13 27° SE 23:26:43 36° E 23:30:42 10° NNE
Cosmos 1238 Rocket 3.4 23:25:54 40° WSW 23:26:54 50° WNW 23:31:11 10° N
USA 234 3.2 23:22:40 10° ENE 23:29:15 86° SSE 23:34:29 17° WSW
SeaSat 1 2.4 23:28:37 36° SSE 23:30:38 72° WSW 23:35:33 10° NW
CZ-2C R/B 3.8 23:27:13 10° N 23:32:46 52° WNW 23:35:48 26° SW
ACS3 Solar Sail 1.8 23:28:21 10° NNE 23:34:20 69° E 23:37:20 31° S
Cosmos 1758 3.1 23:30:59 10° N 23:34:37 75° ENE 23:35:24 52° SSE
Cosmos 1500 Rocket 4.0 23:30:24 10° N 23:34:47 57° ENE 23:36:52 29° SE
Meteor 1-27 Rocket 4.3 23:32:34 27° SW 23:35:27 49° WNW 23:41:01 10° N
ATLAS 2AS CENTAUR R/B 3.4 23:32:52 10° NW 23:39:31 53° NE 23:46:09 10° ESE
BlueWalker 3 1.7 23:41:17 59° SSE 23:41:20 59° SSE 23:44:50 10° ENE
Cosmos 2297 Rocket 2.8 23:43:30 22° WSW 23:46:57 50° NW 23:52:28 10° NNE
Cosmos 1125 Rocket 3.5 23:42:06 10° NNW 23:47:26 85° ENE 23:50:47 23° SSE
Okean 3 Rocket 3.6 23:43:21 10° NNW 23:47:51 67° W 23:49:21 40° SSW
Landsat 5 3.9 23:46:27 10° N 23:50:25 48° WNW 23:51:40 35° WSW
Nadezhda 2 Rocket 4.4 23:45:33 10° NNW 23:51:42 76° W 23:55:06 28° S
Cosmos 1340 Rocket 2.8 23:48:05 10° N 23:51:56 73° ENE 23:53:20 37° SSE
Cosmos 1842 Rocket 4.0 23:53:33 34° SW 23:55:03 49° WNW 23:59:21 10° N
